Location: Newark
(25.6108°S, 54.5803°W)
Time: 14:27:31
(UTC+00:00)

Transit 2A Rocket - Visible Passes

Search period start: 30 October 2020 00:00
Search period end: 09 November 2020 00:00
Orbit: 586 x 916 km, 66.7° (Epoch: 30 October)

Date Brightness Start Highest point End Pass type
(mag) Time Alt. Az. Time Alt. Az. Time Alt. Az.
31 Oct 7.8 01:14:01 10° SW 01:14:01 10° SW 01:14:13 10° SW visible
31 Oct 5.8 22:44:42 10° NNE 22:47:38 18° ENE 22:50:35 10° ESE visible
01 Nov 6.7 00:26:26 10° WNW 00:29:54 24° WSW 00:33:25 10° S visible
01 Nov 5.3 23:43:05 10° NW 23:47:14 51° WSW 23:51:29 10° SSE visible
02 Nov 4.3 23:00:28 10° NNW 23:04:42 70° ENE 23:09:01 10° SSE visible
03 Nov 8.7 07:53:42 10° SE 07:55:17 11° ESE 07:56:53 10° ESE visible
03 Nov 5.2 22:18:32 10° N 22:22:16 30° ENE 22:26:03 10° SE visible
04 Nov 7.6 00:02:16 10° W 00:04:46 15° WSW 00:07:20 10° SSW visible
04 Nov 6.5 23:18:15 10° NW 23:22:02 30° WSW 23:25:56 10° S visible
05 Nov 7.4 08:08:08 10° S 08:13:01 31° ESE 08:18:10 10° ENE visible
05 Nov 4.9 22:35:11 10° NNW 22:39:25 69° WSW 22:43:46 10° SSE visible
06 Nov 8.2 07:26:41 10° SSE 07:30:17 17° ESE 07:33:59 10° E visible
07 Nov 7.6 22:53:47 10° WNW 22:56:53 19° WSW 23:00:04 10° SSW visible
08 Nov 6.5 07:42:31 10° S 07:47:53 45° ESE 07:53:34 10° NE visible
